Regional Weather Roundup
Issued by NWS

Home | Current Version | Previous Version | Graphics & Text | Print | Product List | Glossary On
Versions: 1 2 3 4 5 6 7 8 9 10 11 12 13 14 15 16 17 18 19 20 21 22 23 24 25 26 27 28 29 30 31 32 33 34 35 36 37 38 39 40 41 42 43 44 45 46 47 48 49 50
000
ASUS45 KABQ 041201
RWRNM
NEW MEXICO REGIONAL WEATHER ROUNDUP
NATIONAL WEATHER SERVICE ALBUQUERQUE NM
500 AM MST SUN DEC 04 2016

NOTE: "FAIR" MEANS FEW OR NO CLOUDS BELOW 12,000 FEET AGL WITH NO
       SIGNIFICANT WEATHER OR OBSTRUCTIONS TO VISION.

      THIS PRODUCT IS RELEASED AS TWO VERSIONS.  ONE VERSION NEAR
      THE TOP OF THE HOUR CONTAINING PRELIMINARY DATA FROM ALBUQUERQUE
      AND OTHER STATIONS.  A FINAL VERSION WITH ADDITIONAL DATA IS
      ISSUED ABOUT 10 MINUTES AFTER THE HOUR.

NMZ501-503-504-510>518-041300-
NORTHWEST PLATEAU/NORTHCENTRAL MOUNTAINS

CITY           SKY/WX    TMP DP  RH WIND       PRES   REMARKS
FARMINGTON     FAIR      19  15  84 E7        30.15S WCI  10
6HR MIN TEMP:  18; 6HR MAX TEMP:  25;

LOS ALAMOS     FAIR      26  12  54 NE3       30.14R
SANTA FE       FAIR      26  15  63 N21       30.09S WCI  12
6HR MIN TEMP:  23; 6HR MAX TEMP:  28;

TAOS           FAIR       9  -2  61 N6        30.14F WCI  -1
ANGEL FIRE     FAIR      -1  -5  84 CALM      30.10F

$$
NMZ402-403-502-505>509-041300-
WESTCENTRAL MOUNTAINS/SOUTHWEST MOUNTAINS

CITY           SKY/WX    TMP DP  RH WIND       PRES   REMARKS
GALLUP         FAIR      13   9  84 E3        30.17F
6HR MIN TEMP:  10; 6HR MAX TEMP:  19;

GRANTS         FAIR      14  10  86 N7        30.18S WCI   4
SILVER CITY    FAIR      26  23  88 N3        30.04R

$$
NMZ407-409-411-412-041300-
SOUTHERN DESERTS

CITY           SKY/WX    TMP DP  RH WIND       PRES   REMARKS
DEMING         FAIR      36  28  73 CALM      30.05R
6HR MIN TEMP:  33; 6HR MAX TEMP:  40;

LAS CRUCES     FAIR      37  23  56 N15       30.03S WCI  28
HOLLOMAN AFB   FAIR      32  19  58 N7        30.05S WCI  26
T OR C         FAIR      31  22  69 N8        30.07R WCI  23
6HR MIN TEMP:  31; 6HR MAX TEMP:  40;


$$
NMZ519>523-041300-
CENTRAL VALLEYS/CENTRAL HIGHLANDS

CITY           SKY/WX    TMP DP  RH WIND       PRES   REMARKS
ALBUQUERQUE    FAIR      30  13  49 N8        30.12S WCI  22
6HR MIN TEMP:  28; 6HR MAX TEMP:  35;

DOUBLE EAGLE   FAIR      25  11  57 NW12      30.12S WCI  14
MORIARTY ARPT  FAIR      15  11  85 N5        30.11S WCI   7
6HR MIN TEMP:  15; 6HR MAX TEMP:  27;

CLINES CORNERS FAIR      19  14  81 NW8       30.08S WCI   9
6HR MIN TEMP:  19; 6HR MAX TEMP:  25;

BELEN          FAIR      28  15  60 N8        30.13R WCI  19
6HR MIN TEMP:  26; 6HR MAX TEMP:  32;

SOCORRO        FAIR      28  21  75 N8        30.12R WCI  20
6HR MIN TEMP:  28; 6HR MAX TEMP:  37;


$$
NMZ524>526-539-540-041300-
SOUTHCENTRAL MOUNTAINS

CITY           SKY/WX    TMP DP  RH WIND       PRES   REMARKS
RUIDOSO        FAIR      27  18  69 NW8       30.05R WCI  18

$$
NMZ527>531-041300-
NORTHEAST HIGHLANDS/NORTHEAST PLAINS

CITY           SKY/WX    TMP DP  RH WIND       PRES   REMARKS
LAS VEGAS      FAIR      24  13  62 N6        30.07S WCI  17
6HR MIN TEMP:  18; 6HR MAX TEMP:  25;

RATON          FAIR      19  11  70 NE5       30.04F WCI  12
6HR MIN TEMP:  14; 6HR MAX TEMP:  27;

CLAYTON        FAIR      25  20  81 NW8       30.07R WCI  16
6HR MIN TEMP:  25; 6HR MAX TEMP:  33;


$$
NMZ532>537-041300-
EASTCENTRAL PLAINS

CITY           SKY/WX    TMP DP  RH WIND       PRES   REMARKS
TUCUMCARI      FAIR      22  20  92 N7        30.07R WCI  13
6HR MIN TEMP:  21; 6HR MAX TEMP:  30;

CANNON AFB     FAIR      31  31 100 N15       30.04R WCI  20
6HR MIN TEMP:  30; 6HR MAX TEMP:  35;

CLOVIS AIRPORT MOCLDY    28  27  93 NE12      30.04R WCI  18

$$
NMZ028-029-538-041300-
SOUTHEAST PLAINS

CITY           SKY/WX    TMP DP  RH WIND       PRES   REMARKS
ROSWELL        CLOUDY    35  32  88 N18       30.05R WCI  24
6HR MIN TEMP:  31; 6HR MAX TEMP:  36;

ARTESIA        FAIR      32  32 100 N14G21    30.06R WCI  22
CARLSBAD       FAIR      34  34 100 N3        30.03R
6HR MIN TEMP:  33; 6HR MAX TEMP:  40;

HOBBS          CLOUDY    39  39 100 N6        30.03S WCI  35


$$




USA.gov is the U.S. government's official web portal to all federal, state and local government web resources and services.